Location: Bothwell
(42.3833°S, 147.0000°E)
Time: 19:34:59
(UTC+11:00)

CUBESAT XI-V - Pass Details

Date: 02 October 2022
Orbit: 666 x 689 km, 98.1° (Epoch: 25 November)

Event Time Altitude Azimuth Distance (km) Brightness Sun altitude
Rises 03:29:52 0° 163° (SSE) 3,091 ? -33.3°
Reaches altitude 10° 03:32:11 10° 158° (SSE) 2,170 ? -33.0°
Enters shadow 03:35:14 37° 137° (SE) 1,090 ? -32.6°
